"Time","Value","Approval","myLocation"
"2023-05-07 00:00",3.371,"Approved","OW480"
"2023-05-07 01:00",3.369,"Approved","OW480"
"2023-05-07 02:00",3.365,"Approved","OW480"
"2023-05-07 03:00",3.366,"Approved","OW480"
"2023-05-07 04:00",3.366,"Approved","OW480"
"2023-05-07 05:00",3.365,"Approved","OW480"
"2023-05-07 06:00",3.368,"Approved","OW480"
"2023-05-07 07:00",3.37,"Approved","OW480"
"2023-05-07 08:00",3.374,"Approved","OW480"
"2023-05-07 09:00",3.379,"Approved","OW480"
"2023-05-07 10:00",3.382,"Approved","OW480"
"2023-05-07 11:00",3.384,"Approved","OW480"
"2023-05-07 12:00",3.386,"Approved","OW480"
"2023-05-07 13:00",3.389,"Approved","OW480"
"2023-05-07 14:00",3.39,"Approved","OW480"
"2023-05-07 15:00",3.386,"Approved","OW480"
"2023-05-07 16:00",3.383,"Approved","OW480"
"2023-05-07 17:00",3.385,"Approved","OW480"
"2023-05-07 18:00",3.385,"Approved","OW480"
"2023-05-07 19:00",3.381,"Approved","OW480"
"2023-05-07 20:00",3.38,"Approved","OW480"
"2023-05-07 21:00",3.388,"Approved","OW480"
"2023-05-07 22:00",3.386,"Approved","OW480"
"2023-05-07 23:00",3.386,"Approved","OW480"
"2023-05-08 00:00",3.392,"Approved","OW480"
"2023-05-08 01:00",3.387,"Approved","OW480"
"2023-05-08 02:00",3.392,"Approved","OW480"
"2023-05-08 03:00",3.393,"Approved","OW480"
"2023-05-08 04:00",3.396,"Approved","OW480"
"2023-05-08 05:00",3.392,"Approved","OW480"
"2023-05-08 06:00",3.394,"Approved","OW480"
"2023-05-08 07:00",3.401,"Approved","OW480"
"2023-05-08 08:00",3.402,"Approved","OW480"
"2023-05-08 09:00",3.399,"Approved","OW480"
"2023-05-08 10:00",3.401,"Approved","OW480"
"2023-05-08 11:00",3.405,"Approved","OW480"
"2023-05-08 12:00",3.407,"Approved","OW480"
"2023-05-08 13:00",3.408,"Approved","OW480"
"2023-05-08 14:00",3.41,"Approved","OW480"
"2023-05-08 15:00",3.41,"Approved","OW480"
"2023-05-08 16:00",3.415,"Approved","OW480"
"2023-05-08 17:00",3.41,"Approved","OW480"
"2023-05-08 18:00",3.413,"Approved","OW480"
"2023-05-08 19:00",3.408,"Approved","OW480"
"2023-05-08 20:00",3.409,"Approved","OW480"
"2023-05-08 21:00",3.413,"Approved","OW480"
"2023-05-08 22:00",3.416,"Approved","OW480"
"2023-05-08 23:00",3.417,"Approved","OW480"
"2023-05-09 00:00",3.419,"Approved","OW480"
"2023-05-09 01:00",3.422,"Approved","OW480"
"2023-05-09 02:00",3.422,"Approved","OW480"
"2023-05-09 03:00",3.427,"Approved","OW480"
"2023-05-09 04:00",3.432,"Approved","OW480"
"2023-05-09 05:00",3.429,"Approved","OW480"
"2023-05-09 06:00",3.432,"Approved","OW480"
"2023-05-09 07:00",3.431,"Approved","OW480"
"2023-05-09 08:00",3.436,"Approved","OW480"
"2023-05-09 09:00",3.442,"Approved","OW480"
"2023-05-09 10:00",3.443,"Approved","OW480"
"2023-05-09 11:00",3.444,"Approved","OW480"
"2023-05-09 12:00",3.448,"Approved","OW480"
"2023-05-09 13:00",3.45,"Approved","OW480"
"2023-05-09 14:00",3.45,"Approved","OW480"
"2023-05-09 15:00",3.454,"Approved","OW480"
"2023-05-09 16:00",3.452,"Approved","OW480"
"2023-05-09 17:00",3.449,"Approved","OW480"
"2023-05-09 18:00",3.453,"Approved","OW480"
"2023-05-09 19:00",3.45,"Approved","OW480"
"2023-05-09 20:00",3.452,"Approved","OW480"
"2023-05-09 21:00",3.455,"Approved","OW480"
"2023-05-09 22:00",3.457,"Approved","OW480"
"2023-05-09 23:00",3.455,"Approved","OW480"
"2023-05-10 00:00",3.456,"Approved","OW480"
"2023-05-10 01:00",3.461,"Approved","OW480"
"2023-05-10 02:00",3.458,"Approved","OW480"
"2023-05-10 03:00",3.462,"Approved","OW480"
"2023-05-10 04:00",3.464,"Approved","OW480"
"2023-05-10 05:00",3.462,"Approved","OW480"
"2023-05-10 06:00",3.463,"Approved","OW480"
"2023-05-10 07:00",3.467,"Approved","OW480"
"2023-05-10 08:00",3.469,"Approved","OW480"
"2023-05-10 09:00",3.469,"Approved","OW480"
"2023-05-10 10:00",3.474,"Approved","OW480"
"2023-05-10 11:00",3.477,"Approved","OW480"
"2023-05-10 12:00",3.481,"Approved","OW480"
"2023-05-10 13:00",3.483,"Approved","OW480"
"2023-05-10 14:00",3.486,"Approved","OW480"
"2023-05-10 15:00",3.49,"Approved","OW480"
"2023-05-10 16:00",3.489,"Approved","OW480"
"2023-05-10 17:00",3.483,"Approved","OW480"
"2023-05-10 18:00",3.484,"Approved","OW480"
"2023-05-10 19:00",3.484,"Approved","OW480"
"2023-05-10 20:00",3.487,"Approved","OW480"
"2023-05-10 21:00",3.492,"Approved","OW480"
"2023-05-10 22:00",3.494,"Approved","OW480"
"2023-05-10 23:00",3.494,"Approved","OW480"
"2023-05-11 00:00",3.499,"Approved","OW480"
"2023-05-11 01:00",3.499,"Approved","OW480"
"2023-05-11 02:00",3.497,"Approved","OW480"
"2023-05-11 03:00",3.508,"Approved","OW480"
"2023-05-11 04:00",3.51,"Approved","OW480"
"2023-05-11 05:00",3.513,"Approved","OW480"
"2023-05-11 06:00",3.518,"Approved","OW480"
"2023-05-11 07:00",3.512,"Approved","OW480"
"2023-05-11 08:00",3.516,"Approved","OW480"
"2023-05-11 09:00",3.516,"Approved","OW480"
"2023-05-11 10:00",3.523,"Approved","OW480"
"2023-05-11 11:00",3.527,"Approved","OW480"
"2023-05-11 12:00",3.53,"Approved","OW480"
"2023-05-11 13:00",3.534,"Approved","OW480"
"2023-05-11 14:00",3.533,"Approved","OW480"
"2023-05-11 15:00",3.533,"Approved","OW480"
"2023-05-11 16:00",3.538,"Approved","OW480"
"2023-05-11 17:00",3.537,"Approved","OW480"
"2023-05-11 18:00",3.534,"Approved","OW480"
"2023-05-11 19:00",3.533,"Approved","OW480"
"2023-05-11 20:00",3.537,"Approved","OW480"
"2023-05-11 21:00",3.541,"Approved","OW480"
"2023-05-11 22:00",3.54,"Approved","OW480"
"2023-05-11 23:00",3.54,"Approved","OW480"
"2023-05-12 00:00",3.545,"Approved","OW480"
"2023-05-12 01:00",3.546,"Approved","OW480"
"2023-05-12 02:00",3.55,"Approved","OW480"
"2023-05-12 03:00",3.557,"Approved","OW480"
"2023-05-12 04:00",3.556,"Approved","OW480"
"2023-05-12 05:00",3.559,"Approved","OW480"
"2023-05-12 06:00",3.563,"Approved","OW480"
"2023-05-12 07:00",3.564,"Approved","OW480"
"2023-05-12 08:00",3.569,"Approved","OW480"
"2023-05-12 09:00",3.574,"Approved","OW480"
"2023-05-12 10:00",3.571,"Approved","OW480"
"2023-05-12 11:00",3.576,"Approved","OW480"
"2023-05-12 12:00",3.577,"Approved","OW480"
"2023-05-12 13:00",3.58,"Approved","OW480"
"2023-05-12 14:00",3.581,"Approved","OW480"
"2023-05-12 15:00",3.584,"Approved","OW480"
"2023-05-12 16:00",3.585,"Approved","OW480"
"2023-05-12 17:00",3.587,"Approved","OW480"
"2023-05-12 18:00",3.589,"Approved","OW480"
"2023-05-12 19:00",3.589,"Approved","OW480"
"2023-05-12 20:00",3.593,"Approved","OW480"
"2023-05-12 21:00",3.59,"Approved","OW480"
"2023-05-12 22:00",3.594,"Approved","OW480"
"2023-05-12 23:00",3.593,"Approved","OW480"
"2023-05-13 00:00",3.593,"Approved","OW480"
"2023-05-13 01:00",3.599,"Approved","OW480"
"2023-05-13 02:00",3.602,"Approved","OW480"
"2023-05-13 03:00",3.607,"Approved","OW480"
"2023-05-13 04:00",3.607,"Approved","OW480"
"2023-05-13 05:00",3.61,"Approved","OW480"
"2023-05-13 06:00",3.615,"Approved","OW480"
"2023-05-13 07:00",3.616,"Approved","OW480"
"2023-05-13 08:00",3.617,"Approved","OW480"
"2023-05-13 09:00",3.625,"Approved","OW480"
"2023-05-13 10:00",3.624,"Approved","OW480"
"2023-05-13 11:00",3.626,"Approved","OW480"
"2023-05-13 12:00",3.625,"Approved","OW480"
"2023-05-13 13:00",3.625,"Approved","OW480"
"2023-05-13 14:00",3.627,"Approved","OW480"
"2023-05-13 15:00",3.627,"Approved","OW480"
"2023-05-13 16:00",3.629,"Approved","OW480"
"2023-05-13 17:00",3.626,"Approved","OW480"
"2023-05-13 18:00",3.631,"Approved","OW480"
"2023-05-13 19:00",3.63,"Approved","OW480"
"2023-05-13 20:00",3.633,"Approved","OW480"
"2023-05-13 21:00",3.632,"Approved","OW480"
"2023-05-13 22:00",3.637,"Approved","OW480"
"2023-05-13 23:00",3.637,"Approved","OW480"
"2023-05-14 00:00",3.639,"Approved","OW480"
"2023-05-14 01:00",3.643,"Approved","OW480"
"2023-05-14 02:00",3.642,"Approved","OW480"
"2023-05-14 03:00",3.644,"Approved","OW480"
"2023-05-14 04:00",3.648,"Approved","OW480"
"2023-05-14 05:00",3.651,"Approved","OW480"
"2023-05-14 06:00",3.658,"Approved","OW480"
"2023-05-14 07:00",3.655,"Approved","OW480"
"2023-05-14 08:00",3.659,"Approved","OW480"
"2023-05-14 09:00",3.661,"Approved","OW480"
"2023-05-14 10:00",3.663,"Approved","OW480"
"2023-05-14 11:00",3.663,"Approved","OW480"
"2023-05-14 12:00",3.662,"Approved","OW480"
"2023-05-14 13:00",3.663,"Approved","OW480"
"2023-05-14 14:00",3.665,"Approved","OW480"
"2023-05-14 15:00",3.666,"Approved","OW480"
"2023-05-14 16:00",3.669,"Approved","OW480"
"2023-05-14 17:00",3.673,"Approved","OW480"
"2023-05-14 18:00",3.676,"Approved","OW480"
"2023-05-14 19:00",3.679,"Approved","OW480"
"2023-05-14 20:00",3.684,"Approved","OW480"
"2023-05-14 21:00",3.687,"Approved","OW480"
"2023-05-14 22:00",3.692,"Approved","OW480"
"2023-05-14 23:00",3.693,"Approved","OW480"
"2023-05-15 00:00",3.693,"Approved","OW480"
"2023-05-15 01:00",3.698,"Approved","OW480"
"2023-05-15 02:00",3.697,"Approved","OW480"
"2023-05-15 03:00",3.701,"Approved","OW480"
"2023-05-15 04:00",3.702,"Approved","OW480"
"2023-05-15 05:00",3.708,"Approved","OW480"
"2023-05-15 06:00",3.71,"Approved","OW480"
"2023-05-15 07:00",3.716,"Approved","OW480"
"2023-05-15 08:00",3.718,"Approved","OW480"
"2023-05-15 09:00",3.72,"Approved","OW480"
"2023-05-15 10:00",3.723,"Approved","OW480"
"2023-05-15 11:00",3.723,"Approved","OW480"
"2023-05-15 12:00",3.725,"Approved","OW480"
"2023-05-15 13:00",3.725,"Approved","OW480"
"2023-05-15 14:00",3.731,"Approved","OW480"
"2023-05-15 15:00",3.731,"Approved","OW480"
"2023-05-15 16:00",3.728,"Approved","OW480"
"2023-05-15 17:00",3.73,"Approved","OW480"
"2023-05-15 18:00",3.734,"Approved","OW480"
"2023-05-15 19:00",3.737,"Approved","OW480"
"2023-05-15 20:00",3.745,"Approved","OW480"
"2023-05-15 21:00",3.748,"Approved","OW480"
"2023-05-15 22:00",3.755,"Approved","OW480"
"2023-05-15 23:00",3.753,"Approved","OW480"
"2023-05-16 00:00",3.758,"Approved","OW480"
"2023-05-16 01:00",3.765,"Approved","OW480"
"2023-05-16 02:00",3.767,"Approved","OW480"
"2023-05-16 03:00",3.773,"Approved","OW480"
"2023-05-16 04:00",3.777,"Approved","OW480"
"2023-05-16 05:00",3.78,"Approved","OW480"
"2023-05-16 06:00",3.787,"Approved","OW480"
"2023-05-16 07:00",3.791,"Approved","OW480"
"2023-05-16 08:00",3.796,"Approved","OW480"
"2023-05-16 09:00",3.802,"Approved","OW480"
"2023-05-16 10:00",3.804,"Approved","OW480"
"2023-05-16 11:00",3.807,"Approved","OW480"
"2023-05-16 12:00",3.81,"Approved","OW480"
"2023-05-16 13:00",3.81,"Approved","OW480"
"2023-05-16 14:00",3.804,"Approved","OW480"
"2023-05-16 15:00",3.807,"Approved","OW480"
"2023-05-16 16:00",3.803,"Approved","OW480"
"2023-05-16 17:00",3.802,"Approved","OW480"
"2023-05-16 18:00",3.807,"Approved","OW480"
"2023-05-16 19:00",3.813,"Approved","OW480"
"2023-05-16 20:00",3.816,"Approved","OW480"
"2023-05-16 21:00",3.825,"Approved","OW480"
"2023-05-16 22:00",3.826,"Approved","OW480"
"2023-05-16 23:00",3.832,"Approved","OW480"
"2023-05-17 00:00",3.832,"Approved","OW480"
"2023-05-17 01:00",3.835,"Approved","OW480"
"2023-05-17 02:00",3.837,"Approved","OW480"
"2023-05-17 03:00",3.836,"Approved","OW480"
"2023-05-17 04:00",3.839,"Approved","OW480"
"2023-05-17 05:00",3.845,"Approved","OW480"
"2023-05-17 06:00",3.852,"Approved","OW480"
"2023-05-17 07:00",3.851,"Approved","OW480"
"2023-05-17 08:00",3.86,"Approved","OW480"
"2023-05-17 09:00",3.86,"Approved","OW480"
"2023-05-17 10:00",3.865,"Approved","OW480"
"2023-05-17 11:00",3.866,"Approved","OW480"
"2023-05-17 12:00",3.867,"Approved","OW480"
"2023-05-17 13:00",3.865,"Approved","OW480"
"2023-05-17 14:00",3.861,"Approved","OW480"
"2023-05-17 15:00",3.864,"Approved","OW480"
"2023-05-17 16:00",3.862,"Approved","OW480"
"2023-05-17 17:00",3.863,"Approved","OW480"
"2023-05-17 18:00",3.868,"Approved","OW480"
"2023-05-17 19:00",3.871,"Approved","OW480"
"2023-05-17 20:00",3.876,"Approved","OW480"
"2023-05-17 21:00",3.88,"Approved","OW480"
"2023-05-17 22:00",3.883,"Approved","OW480"
"2023-05-17 23:00",3.887,"Approved","OW480"
"2023-05-18 00:00",3.894,"Approved","OW480"
"2023-05-18 01:00",3.892,"Approved","OW480"
"2023-05-18 02:00",3.894,"Approved","OW480"
"2023-05-18 03:00",3.901,"Approved","OW480"
"2023-05-18 04:00",3.902,"Approved","OW480"
"2023-05-18 05:00",3.908,"Approved","OW480"
"2023-05-18 06:00",3.911,"Approved","OW480"
"2023-05-18 07:00",3.916,"Approved","OW480"
"2023-05-18 08:00",3.926,"Approved","OW480"
"2023-05-18 09:00",3.93,"Approved","OW480"
"2023-05-18 10:00",3.94,"Approved","OW480"
"2023-05-18 11:00",3.942,"Approved","OW480"
"2023-05-18 12:00",3.944,"Approved","OW480"
"2023-05-18 13:00",3.948,"Approved","OW480"
"2023-05-18 14:00",3.948,"Approved","OW480"
"2023-05-18 15:00",3.949,"Approved","OW480"
"2023-05-18 16:00",3.95,"Approved","OW480"
"2023-05-18 17:00",3.95,"Approved","OW480"
"2023-05-18 18:00",3.952,"Approved","OW480"
"2023-05-18 19:00",3.956,"Approved","OW480"
"2023-05-18 20:00",3.963,"Approved","OW480"
"2023-05-18 21:00",3.967,"Approved","OW480"
"2023-05-18 22:00",3.974,"Approved","OW480"
"2023-05-18 23:00",3.975,"Approved","OW480"
"2023-05-19 00:00",3.984,"Approved","OW480"
"2023-05-19 01:00",3.987,"Approved","OW480"
"2023-05-19 02:00",3.987,"Approved","OW480"
"2023-05-19 03:00",3.992,"Approved","OW480"
"2023-05-19 04:00",3.994,"Approved","OW480"
"2023-05-19 05:00",3.998,"Approved","OW480"
"2023-05-19 06:00",4.004,"Approved","OW480"
"2023-05-19 07:00",4.009,"Approved","OW480"
"2023-05-19 08:00",4.012,"Approved","OW480"
"2023-05-19 09:00",4.022,"Approved","OW480"
"2023-05-19 10:00",4.028,"Approved","OW480"
"2023-05-19 11:00",4.027,"Approved","OW480"
"2023-05-19 12:00",4.033,"Approved","OW480"
"2023-05-19 13:00",4.032,"Approved","OW480"
"2023-05-19 14:00",4.03,"Approved","OW480"
"2023-05-19 15:00",4.031,"Approved","OW480"
"2023-05-19 16:00",4.031,"Approved","OW480"
"2023-05-19 17:00",4.029,"Approved","OW480"
"2023-05-19 18:00",4.026,"Approved","OW480"
"2023-05-19 19:00",4.027,"Approved","OW480"
"2023-05-19 20:00",4.034,"Approved","OW480"
"2023-05-19 21:00",4.033,"Approved","OW480"
"2023-05-19 22:00",4.053,"Approved","OW480"
"2023-05-19 23:00",4.053,"Approved","OW480"
"2023-05-20 00:00",4.061,"Approved","OW480"
"2023-05-20 01:00",4.058,"Approved","OW480"
"2023-05-20 02:00",4.064,"Approved","OW480"
"2023-05-20 03:00",4.069,"Approved","OW480"
"2023-05-20 04:00",4.07,"Approved","OW480"
"2023-05-20 05:00",4.076,"Approved","OW480"
"2023-05-20 06:00",4.079,"Approved","OW480"
"2023-05-20 07:00",4.081,"Approved","OW480"
"2023-05-20 08:00",4.089,"Approved","OW480"
"2023-05-20 09:00",4.092,"Approved","OW480"
"2023-05-20 10:00",4.099,"Approved","OW480"
"2023-05-20 11:00",4.104,"Approved","OW480"
"2023-05-20 12:00",4.109,"Approved","OW480"
"2023-05-20 13:00",4.11,"Approved","OW480"
"2023-05-20 14:00",4.109,"Approved","OW480"
"2023-05-20 15:00",4.108,"Approved","OW480"
"2023-05-20 16:00",4.104,"Approved","OW480"
"2023-05-20 17:00",4.108,"Approved","OW480"
"2023-05-20 18:00",4.107,"Approved","OW480"
"2023-05-20 19:00",4.112,"Approved","OW480"
"2023-05-20 20:00",4.114,"Approved","OW480"
"2023-05-20 21:00",4.118,"Approved","OW480"
"2023-05-20 22:00",4.124,"Approved","OW480"
"2023-05-20 23:00",4.129,"Approved","OW480"
"2023-05-21 00:00",4.137,"Approved","OW480"
"2023-05-21 01:00",4.139,"Approved","OW480"
"2023-05-21 02:00",4.143,"Approved","OW480"
"2023-05-21 03:00",4.145,"Approved","OW480"
"2023-05-21 04:00",4.148,"Approved","OW480"
"2023-05-21 05:00",4.153,"Approved","OW480"
"2023-05-21 06:00",4.158,"Approved","OW480"
"2023-05-21 07:00",4.162,"Approved","OW480"
"2023-05-21 08:00",4.166,"Approved","OW480"
"2023-05-21 09:00",4.174,"Approved","OW480"
"2023-05-21 10:00",4.181,"Approved","OW480"
"2023-05-21 11:00",4.186,"Approved","OW480"
"2023-05-21 12:00",4.191,"Approved","OW480"
"2023-05-21 13:00",4.191,"Approved","OW480"
"2023-05-21 14:00",4.192,"Approved","OW480"
"2023-05-21 15:00",4.193,"Approved","OW480"
"2023-05-21 16:00",4.196,"Approved","OW480"
"2023-05-21 17:00",4.201,"Approved","OW480"
"2023-05-21 18:00",4.197,"Approved","OW480"
"2023-05-21 19:00",4.198,"Approved","OW480"
"2023-05-21 20:00",4.202,"Approved","OW480"
"2023-05-21 21:00",4.21,"Approved","OW480"
"2023-05-21 22:00",4.214,"Approved","OW480"
"2023-05-21 23:00",4.219,"Approved","OW480"
"2023-05-22 00:00",4.226,"Approved","OW480"
"2023-05-22 01:00",4.225,"Approved","OW480"
"2023-05-22 02:00",4.229,"Approved","OW480"
"2023-05-22 03:00",4.232,"Approved","OW480"
"2023-05-22 04:00",4.234,"Approved","OW480"
"2023-05-22 05:00",4.239,"Approved","OW480"
"2023-05-22 06:00",4.243,"Approved","OW480"
"2023-05-22 07:00",4.248,"Approved","OW480"
"2023-05-22 08:00",4.252,"Approved","OW480"
"2023-05-22 09:00",4.261,"Approved","OW480"
"2023-05-22 10:00",4.262,"Approved","OW480"
"2023-05-22 11:00",4.271,"Approved","OW480"
"2023-05-22 12:00",4.275,"Approved","OW480"
"2023-05-22 13:00",4.283,"Approved","OW480"
"2023-05-22 14:00",4.283,"Approved","OW480"
"2023-05-22 15:00",4.292,"Approved","OW480"
"2023-05-22 16:00",4.293,"Approved","OW480"
"2023-05-22 17:00",4.292,"Approved","OW480"
"2023-05-22 18:00",4.295,"Approved","OW480"
"2023-05-22 19:00",4.297,"Approved","OW480"
"2023-05-22 20:00",4.295,"Approved","OW480"
"2023-05-22 21:00",4.299,"Approved","OW480"
"2023-05-22 22:00",4.307,"Approved","OW480"
"2023-05-22 23:00",4.312,"Approved","OW480"
"2023-05-23 00:00",4.316,"Approved","OW480"
"2023-05-23 01:00",4.32,"Approved","OW480"
"2023-05-23 02:00",4.324,"Approved","OW480"
"2023-05-23 03:00",4.324,"Approved","OW480"
"2023-05-23 04:00",4.326,"Approved","OW480"
"2023-05-23 05:00",4.332,"Approved","OW480"
"2023-05-23 06:00",4.33,"Approved","OW480"
"2023-05-23 07:00",4.335,"Approved","OW480"
"2023-05-23 08:00",4.329,"Approved","OW480"
"2023-05-23 09:00",4.333,"Approved","OW480"
"2023-05-23 10:00",4.336,"Approved","OW480"
"2023-05-23 11:00",4.339,"Approved","OW480"
"2023-05-23 12:00",4.347,"Approved","OW480"
"2023-05-23 13:00",4.353,"Approved","OW480"
"2023-05-23 14:00",4.353,"Approved","OW480"
"2023-05-23 15:00",4.357,"Approved","OW480"
"2023-05-23 16:00",4.36,"Approved","OW480"
"2023-05-23 17:00",4.361,"Approved","OW480"
"2023-05-23 18:00",4.362,"Approved","OW480"
"2023-05-23 19:00",4.362,"Approved","OW480"
"2023-05-23 20:00",4.368,"Approved","OW480"
"2023-05-23 21:00",4.373,"Approved","OW480"
"2023-05-23 22:00",4.378,"Approved","OW480"
"2023-05-23 23:00",4.38,"Approved","OW480"
"2023-05-24 00:00",4.384,"Approved","OW480"
"2023-05-24 01:00",4.389,"Approved","OW480"
"2023-05-24 02:00",4.394,"Approved","OW480"
"2023-05-24 03:00",4.395,"Approved","OW480"
"2023-05-24 04:00",4.397,"Approved","OW480"
"2023-05-24 05:00",4.4,"Approved","OW480"
"2023-05-24 06:00",4.407,"Approved","OW480"
"2023-05-24 07:00",4.409,"Approved","OW480"
"2023-05-24 08:00",4.411,"Approved","OW480"
"2023-05-24 09:00",4.416,"Approved","OW480"
"2023-05-24 10:00",4.42,"Approved","OW480"
"2023-05-24 11:00",4.425,"Approved","OW480"
"2023-05-24 12:00",4.432,"Approved","OW480"
"2023-05-24 13:00",4.438,"Approved","OW480"
"2023-05-24 14:00",4.441,"Approved","OW480"
"2023-05-24 15:00",4.445,"Approved","OW480"
"2023-05-24 16:00",4.448,"Approved","OW480"
"2023-05-24 17:00",4.446,"Approved","OW480"
"2023-05-24 18:00",4.45,"Approved","OW480"
"2023-05-24 19:00",4.451,"Approved","OW480"
"2023-05-24 20:00",4.453,"Approved","OW480"
"2023-05-24 21:00",4.455,"Approved","OW480"
"2023-05-24 22:00",4.461,"Approved","OW480"
"2023-05-24 23:00",4.464,"Approved","OW480"
"2023-05-25 00:00",4.467,"Approved","OW480"
"2023-05-25 01:00",4.476,"Approved","OW480"
"2023-05-25 02:00",4.479,"Approved","OW480"
"2023-05-25 03:00",4.482,"Approved","OW480"
"2023-05-25 04:00",4.487,"Approved","OW480"
"2023-05-25 05:00",4.493,"Approved","OW480"
"2023-05-25 06:00",4.498,"Approved","OW480"
"2023-05-25 07:00",4.496,"Approved","OW480"
"2023-05-25 08:00",4.507,"Approved","OW480"
"2023-05-25 09:00",4.512,"Approved","OW480"
"2023-05-25 10:00",4.515,"Approved","OW480"
"2023-05-25 11:00",4.519,"Approved","OW480"
"2023-05-25 12:00",4.52,"Approved","OW480"
"2023-05-25 13:00",4.523,"Approved","OW480"
"2023-05-25 14:00",4.532,"Approved","OW480"
"2023-05-25 15:00",4.538,"Approved","OW480"
"2023-05-25 16:00",4.536,"Approved","OW480"
"2023-05-25 17:00",4.541,"Approved","OW480"
"2023-05-25 18:00",4.542,"Approved","OW480"
"2023-05-25 19:00",4.546,"Approved","OW480"
"2023-05-25 20:00",4.549,"Approved","OW480"
"2023-05-25 21:00",4.552,"Approved","OW480"
"2023-05-25 22:00",4.553,"Approved","OW480"
"2023-05-25 23:00",4.557,"Approved","OW480"
"2023-05-26 00:00",4.564,"Approved","OW480"
"2023-05-26 01:00",4.567,"Approved","OW480"
"2023-05-26 02:00",4.574,"Approved","OW480"
"2023-05-26 03:00",4.582,"Approved","OW480"
"2023-05-26 04:00",4.586,"Approved","OW480"
"2023-05-26 05:00",4.59,"Approved","OW480"
"2023-05-26 06:00",4.597,"Approved","OW480"
"2023-05-26 07:00",4.597,"Approved","OW480"
"2023-05-26 08:00",4.604,"Approved","OW480"
"2023-05-26 09:00",4.612,"Approved","OW480"
"2023-05-26 10:00",4.612,"Approved","OW480"
"2023-05-26 11:00",4.621,"Approved","OW480"
"2023-05-26 12:00",4.625,"Approved","OW480"
"2023-05-26 13:00",4.634,"Approved","OW480"
"2023-05-26 14:00",4.633,"Approved","OW480"
"2023-05-26 15:00",4.636,"Approved","OW480"
"2023-05-26 16:00",4.639,"Approved","OW480"
"2023-05-26 17:00",4.647,"Approved","OW480"
"2023-05-26 18:00",4.644,"Approved","OW480"
"2023-05-26 19:00",4.648,"Approved","OW480"
"2023-05-26 20:00",4.649,"Approved","OW480"
"2023-05-26 21:00",4.655,"Approved","OW480"
"2023-05-26 22:00",4.661,"Approved","OW480"
"2023-05-26 23:00",4.666,"Approved","OW480"
"2023-05-27 00:00",4.669,"Approved","OW480"
"2023-05-27 01:00",4.673,"Approved","OW480"
"2023-05-27 02:00",4.682,"Approved","OW480"
"2023-05-27 03:00",4.687,"Approved","OW480"
"2023-05-27 04:00",4.695,"Approved","OW480"
"2023-05-27 05:00",4.702,"Approved","OW480"
"2023-05-27 06:00",4.708,"Approved","OW480"
"2023-05-27 07:00",4.716,"Approved","OW480"
"2023-05-27 08:00",4.714,"Approved","OW480"
"2023-05-27 09:00",4.713,"Approved","OW480"
"2023-05-27 10:00",4.718,"Approved","OW480"
"2023-05-27 11:00",4.723,"Approved","OW480"
"2023-05-27 12:00",4.725,"Approved","OW480"
"2023-05-27 13:00",4.733,"Approved","OW480"
"2023-05-27 14:00",4.738,"Approved","OW480"
"2023-05-27 15:00",4.741,"Approved","OW480"
"2023-05-27 16:00",4.748,"Approved","OW480"
"2023-05-27 17:00",4.751,"Approved","OW480"
"2023-05-27 18:00",4.757,"Approved","OW480"
"2023-05-27 19:00",4.761,"Approved","OW480"
"2023-05-27 20:00",4.764,"Approved","OW480"
"2023-05-27 21:00",4.77,"Approved","OW480"
"2023-05-27 22:00",4.773,"Approved","OW480"
"2023-05-27 23:00",4.78,"Approved","OW480"
"2023-05-28 00:00",4.783,"Approved","OW480"
"2023-05-28 01:00",4.788,"Approved","OW480"
"2023-05-28 02:00",4.792,"Approved","OW480"
"2023-05-28 03:00",4.796,"Approved","OW480"
"2023-05-28 04:00",4.801,"Approved","OW480"
"2023-05-28 05:00",4.806,"Approved","OW480"
"2023-05-28 06:00",4.814,"Approved","OW480"
"2023-05-28 07:00",4.821,"Approved","OW480"
"2023-05-28 08:00",4.825,"Approved","OW480"
"2023-05-28 09:00",4.836,"Approved","OW480"
"2023-05-28 10:00",4.838,"Approved","OW480"
"2023-05-28 11:00",4.84,"Approved","OW480"
"2023-05-28 12:00",4.845,"Approved","OW480"
"2023-05-28 13:00",4.854,"Approved","OW480"
"2023-05-28 14:00",4.856,"Approved","OW480"
"2023-05-28 15:00",4.857,"Approved","OW480"
"2023-05-28 16:00",4.859,"Approved","OW480"
"2023-05-28 17:00",4.862,"Approved","OW480"
"2023-05-28 18:00",4.867,"Approved","OW480"
"2023-05-28 19:00",4.87,"Approved","OW480"
"2023-05-28 20:00",4.874,"Approved","OW480"
"2023-05-28 21:00",4.88,"Approved","OW480"
"2023-05-28 22:00",4.88,"Approved","OW480"
"2023-05-28 23:00",4.887,"Approved","OW480"
"2023-05-29 00:00",4.889,"Approved","OW480"
"2023-05-29 01:00",4.895,"Approved","OW480"
"2023-05-29 02:00",4.896,"Approved","OW480"
"2023-05-29 03:00",4.902,"Approved","OW480"
"2023-05-29 04:00",4.912,"Approved","OW480"